Location: Unspecified
(0.0000°N, 0.0000°E)
Time: 17:53:10
(UTC+00:00)

STARLINK 1061 - Pass Details

Date: 18 January 2020
Orbit: 548 x 551 km, 53.0° (Epoch: 17 January)

Event Time Altitude Azimuth Distance (km) Brightness Sun altitude
Rises 05:32:50 0° 193° (SSW) 2,714 7.3 -8.7°
Reaches altitude 10° 05:35:25 10° 178° (S) 1,819 6.6 -8.1°
Maximum altitude 05:38:44 23° 124° (SE) 1,186 6.5 -7.4°
Drops below altitude 10° 05:42:02 10° 71° (ENE) 1,812 7.1 -6.6°
Sets 05:44:35 0° 56° (ENE) 2,701 7.7 -6.0°
